Location: Brachbach
(49.1847°N, 9.7240°E)
Time: 17:13:12
(UTC+00:00)

Meteor 2-5 Rocket - Pass Details

Date: 11 August 2024
Orbit: 833 x 910 km, 81.2° (Epoch: 07 September)

Event Time Altitude Azimuth Distance (km) Brightness Sun altitude
Rises 00:32:30 0° 357° (N) 3,452 8.1 -24.0°
Reaches altitude 10° 00:35:49 10° 17° (NNE) 2,526 7.3 -23.8°
Maximum altitude 00:39:34 17° 58° (ENE) 2,055 6.3 -23.6°
Drops below altitude 10° 00:43:20 10° 99° (E) 2,551 6.3 -23.4°
Sets 00:46:42 0° 119° (ESE) 3,500 6.8 -23.2°
